Date String (YYYY-MM-DD hh:mm:ss) UTC,Instrument flags,Ambient pressure (hPa),Sample flow (lpm),Bypass flow (lpm),Sample temperature (°C),Ambient temperature (°C),ASC tube jacket temperature (°C),LED temperature (°C),Box temperature (°C),Sample RH (%),Span deviation,Mass concentration (μg/m³),Mass concentration (μg/m³),Mass concentration (μg/m³)
DateTimeUTC,F1_M11,P_M11,Q1_M11,Q2_M11,T1_M11,T2_M11,T3_M11,T4_M11,T5_M11,U1_M11,ZSPAN_M11,X0_M11,X2_M11,X1_M11
2021-11-28 02:00:00,,0832.7,4.99,0.00,25.8,24.9,00.0,34.9,27.5,10.2,0000.0,0014.09,0003.69,0002.17
2021-11-28 02:01:00,,0832.7,5.00,0.00,25.8,24.9,00.0,34.9,27.6,10.2,0000.0,0015.12,0003.74,0002.18
2021-11-28 02:02:00,,0832.8,5.01,0.00,25.8,24.9,00.0,34.8,27.6,10.2,0000.0,0016.45,0003.81,0002.18
2021-11-28 02:03:00,,0832.7,4.99,0.00,25.8,24.9,00.0,34.8,27.5,10.2,0000.0,0015.94,0003.84,0002.18
2021-11-28 02:04:00,,0832.7,5.00,0.00,25.8,24.9,00.0,34.8,27.6,10.2,0000.0,0015.18,0003.81,0002.18
2021-11-28 02:05:00,,0832.7,5.01,0.00,25.8,24.9,00.0,34.8,27.6,10.2,0000.0,0015.51,0003.79,0002.18
2021-11-28 02:06:00,,0832.7,4.98,0.00,25.8,24.9,00.0,34.8,27.5,10.2,0000.0,0016.47,0003.81,0002.19
2021-11-28 02:07:00,,0832.7,5.02,0.00,25.8,24.9,00.0,34.8,27.5,10.2,0000.0,0016.48,0003.86,0002.21
2021-11-28 02:08:00,,0832.7,4.99,0.00,25.8,24.9,00.0,34.8,27.5,10.2,0000.0,0017.33,0003.90,0002.20
2021-11-28 02:09:00,,0832.7,5.01,0.00,25.8,24.9,00.0,34.8,27.5,10.2,0000.0,0017.90,0003.85,0002.19
2021-11-28 02:10:00,,0832.7,4.99,0.00,25.8,24.9,00.0,34.8,27.5,10.2,0000.0,0018.10,0003.84,0002.18
2021-11-28 02:11:00,,0832.8,5.01,0.00,25.8,24.9,00.0,34.8,27.5,10.2,0000.0,0017.40,0003.84,0002.18
2021-11-28 02:12:00,,0832.7,4.99,0.00,25.8,24.9,00.0,34.8,27.5,10.3,0000.0,0015.79,0003.75,0002.18
2021-11-28 02:13:00,,0832.7,5.02,0.00,25.8,24.8,00.0,34.8,27.5,10.3,0000.0,0014.58,0003.73,0002.18
2021-11-28 02:14:00,,0832.8,4.99,0.00,25.8,24.8,00.0,34.8,27.5,10.3,0000.0,0014.75,0003.74,0002.16
2021-11-28 02:15:00,,0832.7,4.99,0.00,25.8,24.8,00.0,34.8,27.5,10.3,0000.0,0015.30,0003.74,0002.16
2021-11-28 02:16:00,,0832.7,5.01,0.00,25.7,24.8,00.0,34.8,27.5,10.3,0000.0,0015.62,0003.75,0002.16
2021-11-28 02:17:00,,0832.7,5.00,0.00,25.7,24.8,00.0,34.8,27.5,10.3,0000.0,0014.34,0003.75,0002.15
2021-11-28 02:18:00,,0832.7,5.00,0.00,25.7,24.8,00.0,34.8,27.5,10.3,0000.0,0013.60,0003.74,0002.15
2021-11-28 02:19:00,,0832.7,5.01,0.00,25.7,24.8,00.0,34.8,27.5,10.3,0000.0,0012.10,0003.66,0002.13
2021-11-28 02:20:00,,0832.7,4.99,0.00,25.7,24.8,00.0,34.8,27.4,10.3,0000.0,0011.60,0003.65,0002.12
2021-11-28 02:21:00,,0832.7,5.01,0.00,25.7,24.8,00.0,34.8,27.5,10.3,0000.0,0011.91,0003.64,0002.12
2021-11-28 02:22:00,,0832.7,5.00,0.00,25.7,24.8,00.0,34.8,27.4,10.3,0000.0,0012.23,0003.61,0002.10
2021-11-28 02:23:00,,0832.7,4.98,0.00,25.7,24.8,00.0,34.8,27.4,10.3,0000.0,0012.41,0003.62,0002.09
2021-11-28 02:24:00,,0832.7,5.01,0.00,25.7,24.8,00.0,34.8,27.5,10.3,0000.0,0012.95,0003.63,0002.09
2021-11-28 02:25:00,,0832.7,5.00,0.00,25.7,24.8,00.0,34.8,27.5,10.4,0000.0,0013.18,0003.56,0002.08
2021-11-28 02:26:00,,0832.7,5.00,0.00,25.7,24.8,00.0,34.7,27.5,10.4,0000.0,0012.88,0003.56,0002.07
2021-11-28 02:27:00,,0832.7,5.00,0.00,25.7,24.8,00.0,34.7,27.5,10.4,0000.0,0012.00,0003.56,0002.05
2021-11-28 02:28:00,,0832.7,5.02,0.00,25.7,24.8,00.0,34.7,27.5,10.4,0000.0,0012.26,0003.56,0002.03
2021-11-28 02:29:00,,0832.7,4.98,0.00,25.7,24.8,00.0,34.7,27.5,10.4,0000.0,0012.11,0003.52,0002.01
2021-11-28 02:30:00,,0832.7,5.00,0.00,25.7,24.8,00.0,34.7,27.4,10.4,0000.0,0012.76,0003.53,0001.99
2021-11-28 02:31:00,,0832.7,4.99,0.00,25.7,24.8,00.0,34.7,27.4,10.5,0000.0,0013.04,0003.53,0001.98
2021-11-28 02:32:00,,0832.7,5.01,0.00,25.7,24.8,00.0,34.7,27.5,10.5,0000.0,0012.98,0003.51,0001.96
2021-11-28 02:33:00,,0832.6,5.00,0.00,25.7,24.8,00.0,34.7,27.5,10.5,0000.0,0012.45,0003.48,0001.95
2021-11-28 02:34:00,,0832.6,4.99,0.00,25.7,24.8,00.0,34.7,27.5,10.5,0000.0,0012.57,0003.47,0001.94
2021-11-28 02:35:00,,0832.7,5.02,0.00,25.7,24.8,00.0,34.7,27.5,10.5,0000.0,0013.37,0003.47,0001.93
2021-11-28 02:36:00,,0832.7,4.98,0.00,25.7,24.8,00.0,34.7,27.5,10.4,0000.0,0013.88,0003.49,0001.93
2021-11-28 02:37:00,,0832.6,5.00,0.00,25.7,24.8,00.0,34.7,27.5,10.4,0000.0,0013.92,0003.50,0001.95
2021-11-28 02:38:00,,0832.7,4.99,0.00,25.7,24.8,00.0,34.7,27.5,10.4,0000.0,0013.79,0003.52,0001.98
2021-11-28 02:39:00,,0832.7,4.99,0.00,25.7,24.8,00.0,34.7,27.5,10.5,0000.0,0013.52,0003.53,0001.99
2021-11-28 02:40:00,,0832.7,5.00,0.00,25.7,24.8,00.0,34.7,27.5,10.5,0000.0,0013.56,0003.58,0002.00
2021-11-28 02:41:00,,0832.7,5.01,0.00,25.7,24.8,00.0,34.7,27.5,10.4,0000.0,0012.91,0003.58,0002.03
2021-11-28 02:42:00,,0832.7,4.99,0.00,25.7,24.8,00.0,34.7,27.5,10.4,0000.0,0012.53,0003.60,0002.06
2021-11-28 02:43:00,,0832.7,5.00,0.00,25.7,24.8,00.0,34.7,27.5,10.4,0000.0,0012.64,0003.60,0002.09
2021-11-28 02:44:00,,0832.7,5.00,0.00,25.7,24.8,00.0,34.7,27.5,10.4,0000.0,0013.39,0003.60,0002.10
2021-11-28 02:45:00,,0832.7,5.01,0.00,25.7,24.8,00.0,34.7,27.5,10.4,0000.0,0013.32,0003.65,0002.13
2021-11-28 02:46:00,,0832.7,4.98,0.00,25.7,24.8,00.0,34.7,27.5,10.4,0000.0,0012.55,0003.70,0002.15
2021-11-28 02:47:00,,0832.7,5.00,0.00,25.7,24.8,00.0,34.7,27.4,10.4,0000.0,0011.87,0003.75,0002.18
2021-11-28 02:48:00,,0832.7,5.00,0.00,25.7,24.8,00.0,34.7,27.4,10.4,0000.0,0011.86,0003.81,0002.18
2021-11-28 02:49:00,,0832.7,5.00,0.00,25.7,24.7,00.0,34.7,27.4,10.4,0000.0,0012.35,0003.83,0002.18
2021-11-28 02:50:00,,0832.7,4.99,0.00,25.7,24.7,00.0,34.7,27.4,10.4,0000.0,0013.37,0003.82,0002.20
2021-11-28 02:51:00,,0832.7,5.01,0.00,25.7,24.7,00.0,34.7,27.4,10.5,0000.0,0013.23,0003.80,0002.22
2021-11-28 02:52:00,,0832.7,4.99,0.00,25.6,24.7,00.0,34.7,27.4,10.5,0000.0,0014.32,0003.87,0002.24
2021-11-28 02:53:00,,0832.7,5.01,0.00,25.6,24.7,00.0,34.7,27.4,10.5,0000.0,0015.21,0003.92,0002.24
2021-11-28 02:54:00,,0832.6,5.01,0.00,25.6,24.7,00.0,34.7,27.4,10.5,0000.0,0015.16,0003.99,0002.24
2021-11-28 02:55:00,,0832.6,4.99,0.00,25.6,24.7,00.0,34.7,27.4,10.5,0000.0,0015.60,0004.03,0002.25
2021-11-28 02:56:00,,0832.6,4.99,0.00,25.6,24.7,00.0,34.6,27.4,10.4,0000.0,0016.01,0004.02,0002.25
2021-11-28 02:57:00,,0832.5,5.01,0.00,25.6,24.7,00.0,34.6,27.4,10.4,0000.0,0016.22,0003.99,0002.25
2021-11-28 02:58:00,,0832.5,4.98,0.00,25.6,24.7,00.0,34.6,27.4,10.4,0000.0,0015.96,0003.94,0002.23
2021-11-28 02:59:00,,0832.5,5.01,0.00,25.6,24.7,00.0,34.6,27.4,10.4,0000.0,0015.97,0003.88,0002.23
